Time,TemperatureF,DewpointF,PressureIn,WindDirection,WindDirectionDegrees,WindSpeedMPH,WindSpeedGustMPH,Humidity,HourlyPrecipIn,Conditions,Clouds,dailyrainin,SoftwareType,DateUTC
2013-12-14 00:00:00,-12.2,-16.9,30.46,North,355,0.0,0.0,79,0.00,,,0.00,Wunderground v.1.15,2013-12-14 05:00:00,
2013-12-14 00:05:00,-12.4,-17.1,30.46,North,355,0.0,1.0,79,0.00,,,0.00,Wunderground v.1.15,2013-12-14 05:05:00,
2013-12-14 00:10:00,-12.4,-16.8,30.46,North,355,1.0,1.0,80,0.00,,,0.00,Wunderground v.1.15,2013-12-14 05:10:00,
2013-12-14 00:15:00,-12.5,-16.9,30.46,North,355,1.0,1.0,80,0.00,,,0.00,Wunderground v.1.15,2013-12-14 05:15:00,
2013-12-14 00:20:00,-12.6,-17.3,30.47,North,355,1.0,1.0,79,0.00,,,0.00,Wunderground v.1.15,2013-12-14 05:20:00,
2013-12-14 00:25:00,-13.0,-17.7,30.48,North,355,0.0,1.0,79,0.00,,,0.00,Wunderground v.1.15,2013-12-14 05:25:00,
2013-12-14 00:35:00,-13.3,-17.9,30.48,North,355,0.0,0.0,79,0.00,,,0.00,Wunderground v.1.15,2013-12-14 05:35:00,
2013-12-14 00:40:00,-13.4,-18.3,30.48,North,355,0.0,0.0,78,0.00,,,0.00,Wunderground v.1.15,2013-12-14 05:40:00,
2013-12-14 00:45:00,-13.4,-18.3,30.49,North,355,0.0,0.0,78,0.00,,,0.00,Wunderground v.1.15,2013-12-14 05:45:00,
2013-12-14 00:55:00,-13.1,-17.5,30.50,West,266,2.0,3.0,80,0.00,,,0.00,Wunderground v.1.15,2013-12-14 05:55:00,
2013-12-14 01:00:00,-12.8,-17.2,30.50,West,266,2.0,3.0,80,0.00,,,0.00,Wunderground v.1.15,2013-12-14 06:00:00,
2013-12-14 01:05:00,-12.7,-17.1,30.50,West,266,2.0,3.0,80,0.00,,,0.00,Wunderground v.1.15,2013-12-14 06:05:00,
2013-12-14 01:10:00,-12.6,-17.0,30.51,West,266,2.0,2.0,80,0.00,,,0.00,Wunderground v.1.15,2013-12-14 06:10:00,
2013-12-14 01:15:00,-12.4,-16.8,30.51,West,266,2.0,3.0,80,0.00,,,0.00,Wunderground v.1.15,2013-12-14 06:15:00,
2013-12-14 01:20:00,-11.9,-16.1,30.51,West,266,3.0,3.0,81,0.00,,,0.00,Wunderground v.1.15,2013-12-14 06:20:00,
2013-12-14 01:30:00,-12.8,-17.5,30.51,West,266,1.0,1.0,79,0.00,,,0.00,Wunderground v.1.15,2013-12-14 06:30:00,
2013-12-14 01:40:00,-13.7,-18.6,30.52,West,266,1.0,1.0,78,0.00,,,0.00,Wunderground v.1.15,2013-12-14 06:40:00,
2013-12-14 01:45:00,-13.7,-18.3,30.52,West,266,2.0,2.0,79,0.00,,,0.00,Wunderground v.1.15,2013-12-14 06:45:00,
2013-12-14 01:50:00,-13.7,-18.3,30.52,West,267,2.0,2.0,79,0.00,,,0.00,Wunderground v.1.15,2013-12-14 06:50:00,
2013-12-14 02:00:00,-14.3,-19.4,30.52,West,266,0.0,0.0,77,0.00,,,0.00,Wunderground v.1.15,2013-12-14 07:00:00,
2013-12-14 02:05:00,-14.8,-19.9,30.53,West,266,0.0,0.0,77,0.00,,,0.00,Wunderground v.1.15,2013-12-14 07:05:00,
2013-12-14 02:10:00,-14.9,-19.8,30.53,West,266,0.0,0.0,78,0.00,,,0.00,Wunderground v.1.15,2013-12-14 07:10:00,
2013-12-14 02:15:00,-15.0,-19.9,30.54,West,266,0.0,0.0,78,0.00,,,0.00,Wunderground v.1.15,2013-12-14 07:15:00,
2013-12-14 02:20:00,-15.2,-20.3,30.54,West,266,0.0,0.0,77,0.00,,,0.00,Wunderground v.1.15,2013-12-14 07:20:00,
2013-12-14 02:25:00,-15.4,-20.5,30.54,West,266,0.0,0.0,77,0.00,,,0.00,Wunderground v.1.15,2013-12-14 07:25:00,
2013-12-14 02:30:00,-15.4,-20.5,30.54,West,266,0.0,0.0,77,0.00,,,0.00,Wunderground v.1.15,2013-12-14 07:30:00,
2013-12-14 02:35:00,-15.6,-20.7,30.54,West,266,0.0,0.0,77,0.00,,,0.00,Wunderground v.1.15,2013-12-14 07:35:00,
2013-12-14 02:40:00,-15.7,-20.8,30.55,West,266,0.0,0.0,77,0.00,,,0.00,Wunderground v.1.15,2013-12-14 07:40:00,
2013-12-14 02:45:00,-15.9,-21.0,30.55,West,266,0.0,0.0,77,0.00,,,0.00,Wunderground v.1.15,2013-12-14 07:45:00,
2013-12-14 02:50:00,-15.9,-20.7,30.55,West,266,0.0,0.0,78,0.00,,,0.00,Wunderground v.1.15,2013-12-14 07:50:00,
2013-12-14 02:55:00,-15.8,-20.9,30.55,West,266,0.0,0.0,77,0.00,,,0.00,Wunderground v.1.15,2013-12-14 07:55:00,
2013-12-14 03:00:00,-16.0,-21.1,30.55,West,266,0.0,0.0,77,0.00,,,0.00,Wunderground v.1.15,2013-12-14 08:00:00,
2013-12-14 03:05:00,-16.0,-21.1,30.56,West,266,0.0,0.0,77,0.00,,,0.00,Wunderground v.1.15,2013-12-14 08:05:00,
2013-12-14 03:10:00,-16.1,-21.2,30.56,West,266,0.0,0.0,77,0.00,,,0.00,Wunderground v.1.15,2013-12-14 08:10:00,
2013-12-14 03:15:00,-16.1,-21.2,30.56,West,266,0.0,1.0,77,0.00,,,0.00,Wunderground v.1.15,2013-12-14 08:15:00,
2013-12-14 03:20:00,-16.2,-21.0,30.56,West,266,0.0,0.0,78,0.00,,,0.00,Wunderground v.1.15,2013-12-14 08:20:00,
2013-12-14 03:30:00,-16.3,-21.1,30.56,West,266,0.0,0.0,78,0.00,,,0.00,Wunderground v.1.15,2013-12-14 08:30:00,
2013-12-14 03:35:00,-16.5,-21.3,30.57,West,266,0.0,0.0,78,0.00,,,0.00,Wunderground v.1.15,2013-12-14 08:35:00,
2013-12-14 03:40:00,-16.5,-21.3,30.57,West,266,0.0,0.0,78,0.00,,,0.00,Wunderground v.1.15,2013-12-14 08:40:00,
2013-12-14 03:50:00,-16.6,-21.4,30.57,West,266,0.0,0.0,78,0.00,,,0.00,Wunderground v.1.15,2013-12-14 08:50:00,
2013-12-14 03:55:00,-16.8,-21.6,30.57,West,266,0.0,0.0,78,0.00,,,0.00,Wunderground v.1.15,2013-12-14 08:55:00,
2013-12-14 04:05:00,-17.0,-21.8,30.57,West,266,0.0,0.0,78,0.00,,,0.00,Wunderground v.1.15,2013-12-14 09:05:00,
2013-12-14 04:10:00,-17.0,-21.8,30.57,West,266,1.0,1.0,78,0.00,,,0.00,Wunderground v.1.15,2013-12-14 09:10:00,
2013-12-14 04:20:00,-17.1,-21.9,30.57,West,266,0.0,1.0,78,0.00,,,0.00,Wunderground v.1.15,2013-12-14 09:20:00,
2013-12-14 04:30:00,-17.1,-21.9,30.57,West,266,0.0,0.0,78,0.00,,,0.00,Wunderground v.1.15,2013-12-14 09:30:00,
2013-12-14 04:40:00,-17.2,-22.0,30.57,West,266,0.0,2.0,78,0.00,,,0.00,Wunderground v.1.15,2013-12-14 09:40:00,
2013-12-14 04:45:00,-17.2,-22.0,30.58,West,266,0.0,2.0,78,0.00,,,0.00,Wunderground v.1.15,2013-12-14 09:45:00,
2013-12-14 04:50:00,-17.2,-22.0,30.58,West,266,0.0,0.0,78,0.00,,,0.00,Wunderground v.1.15,2013-12-14 09:50:00,
2013-12-14 04:55:00,-17.1,-21.9,30.58,West,266,0.0,0.0,78,0.00,,,0.00,Wunderground v.1.15,2013-12-14 09:55:00,
2013-12-14 05:00:00,-17.0,-21.8,30.59,West,266,0.0,0.0,78,0.00,,,0.00,Wunderground v.1.15,2013-12-14 10:00:00,
2013-12-14 05:05:00,-16.9,-21.7,30.59,West,266,0.0,1.0,78,0.00,,,0.00,Wunderground v.1.15,2013-12-14 10:05:00,
2013-12-14 05:10:00,-16.9,-21.7,30.60,West,266,0.0,0.0,78,0.00,,,0.00,Wunderground v.1.15,2013-12-14 10:10:00,
2013-12-14 05:15:00,-17.1,-21.9,30.60,West,266,0.0,0.0,78,0.00,,,0.00,Wunderground v.1.15,2013-12-14 10:15:00,
2013-12-14 05:20:00,-17.2,-22.0,30.60,West,266,0.0,0.0,78,0.00,,,0.00,Wunderground v.1.15,2013-12-14 10:20:00,
2013-12-14 05:25:00,-17.2,-22.0,30.61,West,266,0.0,0.0,78,0.00,,,0.00,Wunderground v.1.15,2013-12-14 10:25:00,
2013-12-14 05:30:00,-17.2,-22.0,30.61,West,266,0.0,0.0,78,0.00,,,0.00,Wunderground v.1.15,2013-12-14 10:30:00,
2013-12-14 05:35:00,-17.3,-22.1,30.61,West,266,0.0,1.0,78,0.00,,,0.00,Wunderground v.1.15,2013-12-14 10:35:00,
2013-12-14 05:40:00,-17.4,-22.2,30.61,West,266,0.0,0.0,78,0.00,,,0.00,Wunderground v.1.15,2013-12-14 10:40:00,
2013-12-14 05:45:00,-17.4,-22.2,30.62,West,266,0.0,0.0,78,0.00,,,0.00,Wunderground v.1.15,2013-12-14 10:45:00,
2013-12-14 05:50:00,-17.5,-22.3,30.62,West,266,0.0,1.0,78,0.00,,,0.00,Wunderground v.1.15,2013-12-14 10:50:00,
2013-12-14 05:55:00,-17.5,-22.3,30.62,West,266,0.0,1.0,78,0.00,,,0.00,Wunderground v.1.15,2013-12-14 10:55:00,
2013-12-14 06:05:00,-17.6,-22.4,30.63,West,266,0.0,0.0,78,0.00,,,0.00,Wunderground v.1.15,2013-12-14 11:05:00,
2013-12-14 06:10:00,-17.5,-22.3,30.63,West,266,0.0,0.0,78,0.00,,,0.00,Wunderground v.1.15,2013-12-14 11:10:00,
2013-12-14 06:15:00,-17.4,-22.2,30.64,West,266,0.0,0.0,78,0.00,,,0.00,Wunderground v.1.15,2013-12-14 11:15:00,
2013-12-14 06:25:00,-17.4,-22.2,30.64,West,266,0.0,0.0,78,0.00,,,0.00,Wunderground v.1.15,2013-12-14 11:25:00,
2013-12-14 06:30:00,-17.4,-22.2,30.64,West,266,0.0,0.0,78,0.00,,,0.00,Wunderground v.1.15,2013-12-14 11:30:00,
2013-12-14 06:35:00,-17.3,-22.1,30.64,West,266,1.0,1.0,78,0.00,,,0.00,Wunderground v.1.15,2013-12-14 11:35:00,
2013-12-14 06:40:00,-17.2,-22.0,30.64,West,266,1.0,1.0,78,0.00,,,0.00,Wunderground v.1.15,2013-12-14 11:40:00,
2013-12-14 06:50:00,-17.1,-21.9,30.64,West,266,0.0,0.0,78,0.00,,,0.00,Wunderground v.1.15,2013-12-14 11:50:00,
2013-12-14 06:55:00,-17.0,-21.8,30.65,West,266,0.0,0.0,78,0.00,,,0.00,Wunderground v.1.15,2013-12-14 11:55:00,
2013-12-14 07:00:00,-16.9,-21.7,30.65,West,266,0.0,0.0,78,0.00,,,0.00,Wunderground v.1.15,2013-12-14 12:00:00,
2013-12-14 07:05:00,-16.8,-21.6,30.65,West,266,0.0,0.0,78,0.00,,,0.00,Wunderground v.1.15,2013-12-14 12:05:00,
2013-12-14 07:10:00,-16.6,-21.4,30.65,West,266,0.0,0.0,78,0.00,,,0.00,Wunderground v.1.15,2013-12-14 12:10:00,
2013-12-14 07:15:00,-16.3,-20.9,30.65,West,266,0.0,0.0,79,0.00,,,0.00,Wunderground v.1.15,2013-12-14 12:15:00,
2013-12-14 07:20:00,-16.1,-20.9,30.66,West,266,0.0,0.0,78,0.00,,,0.00,Wunderground v.1.15,2013-12-14 12:20:00,
2013-12-14 07:25:00,-16.3,-21.1,30.66,West,266,0.0,0.0,78,0.00,,,0.00,Wunderground v.1.15,2013-12-14 12:25:00,
2013-12-14 07:35:00,-16.2,-21.0,30.66,West,266,0.0,0.0,78,0.00,,,0.00,Wunderground v.1.15,2013-12-14 12:35:00,
2013-12-14 07:40:00,-16.0,-20.8,30.66,West,266,0.0,0.0,78,0.00,,,0.00,Wunderground v.1.15,2013-12-14 12:40:00,
2013-12-14 07:45:00,-15.8,-20.4,30.67,West,266,0.0,0.0,79,0.00,,,0.00,Wunderground v.1.15,2013-12-14 12:45:00,
2013-12-14 07:50:00,-15.4,-20.0,30.67,West,266,0.0,1.0,79,0.00,,,0.00,Wunderground v.1.15,2013-12-14 12:50:00,
2013-12-14 07:55:00,-15.1,-19.5,30.67,West,266,1.0,1.0,80,0.00,,,0.00,Wunderground v.1.15,2013-12-14 12:55:00,
2013-12-14 08:00:00,-14.9,-19.3,30.67,West,266,0.0,0.0,80,0.00,,,0.00,Wunderground v.1.15,2013-12-14 13:00:00,
2013-12-14 08:05:00,-14.5,-18.9,30.67,West,266,0.0,0.0,80,0.00,,,0.00,Wunderground v.1.15,2013-12-14 13:05:00,
2013-12-14 08:15:00,-13.7,-18.1,30.68,West,266,0.0,0.0,80,0.00,,,0.00,Wunderground v.1.15,2013-12-14 13:15:00,
2013-12-14 08:20:00,-13.3,-17.7,30.68,West,266,0.0,0.0,80,0.00,,,0.00,Wunderground v.1.15,2013-12-14 13:20:00,
2013-12-14 08:25:00,-12.9,-17.3,30.68,West,266,0.0,0.0,80,0.00,,,0.00,Wunderground v.1.15,2013-12-14 13:25:00,
2013-12-14 08:30:00,-12.3,-16.5,30.68,West,266,0.0,0.0,81,0.00,,,0.00,Wunderground v.1.15,2013-12-14 13:30:00,
2013-12-14 08:40:00,-11.0,-15.2,30.68,West,266,0.0,0.0,81,0.00,,,0.00,Wunderground v.1.15,2013-12-14 13:40:00,
2013-12-14 08:45:00,-10.1,-14.3,30.68,West,266,0.0,0.0,81,0.00,,,0.00,Wunderground v.1.15,2013-12-14 13:45:00,
2013-12-14 08:50:00,-9.4,-13.6,30.67,West,266,0.0,0.0,81,0.00,,,0.00,Wunderground v.1.15,2013-12-14 13:50:00,
2013-12-14 08:55:00,-8.6,-12.9,30.68,West,266,0.0,0.0,81,0.00,,,0.00,Wunderground v.1.15,2013-12-14 13:55:00,
2013-12-14 09:00:00,-8.4,-12.9,30.68,West,266,0.0,0.0,80,0.00,,,0.00,Wunderground v.1.15,2013-12-14 14:00:00,
2013-12-14 09:05:00,-7.9,-12.2,30.68,West,266,0.0,0.0,81,0.00,,,0.00,Wunderground v.1.15,2013-12-14 14:05:00,
2013-12-14 09:10:00,-7.6,-11.9,30.68,West,266,0.0,0.0,81,0.00,,,0.00,Wunderground v.1.15,2013-12-14 14:10:00,
2013-12-14 09:15:00,-7.0,-11.3,30.68,West,266,0.0,0.0,81,0.00,,,0.00,Wunderground v.1.15,2013-12-14 14:15:00,
2013-12-14 09:20:00,-6.6,-11.2,30.68,West,266,0.0,0.0,80,0.00,,,0.00,Wunderground v.1.15,2013-12-14 14:20:00,
2013-12-14 09:25:00,-6.2,-10.8,30.68,West,266,0.0,0.0,80,0.00,,,0.00,Wunderground v.1.15,2013-12-14 14:25:00,
2013-12-14 09:30:00,-5.9,-10.7,30.67,West,266,0.0,0.0,79,0.00,,,0.00,Wunderground v.1.15,2013-12-14 14:30:00,
2013-12-14 09:35:00,-5.4,-10.2,30.68,West,266,0.0,0.0,79,0.00,,,0.00,Wunderground v.1.15,2013-12-14 14:35:00,
2013-12-14 09:40:00,-5.4,-10.2,30.68,West,266,1.0,2.0,79,0.00,,,0.00,Wunderground v.1.15,2013-12-14 14:40:00,
2013-12-14 09:45:00,-5.4,-10.2,30.68,West,266,2.0,2.0,79,0.00,,,0.00,Wunderground v.1.15,2013-12-14 14:45:00,
2013-12-14 09:50:00,-4.8,-9.4,30.67,West,266,1.0,1.0,80,0.00,,,0.00,Wunderground v.1.15,2013-12-14 14:50:00,
2013-12-14 09:55:00,-4.1,-8.7,30.68,West,266,0.0,1.0,80,0.00,,,0.00,Wunderground v.1.15,2013-12-14 14:55:00,
2013-12-14 10:00:00,-3.3,-8.4,30.68,West,266,0.0,0.0,78,0.00,,,0.00,Wunderground v.1.15,2013-12-14 15:00:00,
2013-12-14 10:05:00,-3.1,-8.5,30.68,West,266,1.0,1.0,77,0.00,,,0.00,Wunderground v.1.15,2013-12-14 15:05:00,
2013-12-14 10:10:00,-2.9,-8.6,30.68,West,266,2.0,2.0,76,0.00,,,0.00,Wunderground v.1.15,2013-12-14 15:10:00,
2013-12-14 10:15:00,-2.7,-8.4,30.69,West,266,2.0,2.0,76,0.00,,,0.00,Wunderground v.1.15,2013-12-14 15:15:00,
2013-12-14 10:20:00,-2.5,-8.5,30.69,West,266,2.0,2.0,75,0.00,,,0.00,Wunderground v.1.15,2013-12-14 15:20:00,
2013-12-14 10:25:00,-2.0,-8.3,30.69,West,266,1.0,2.0,74,0.00,,,0.00,Wunderground v.1.15,2013-12-14 15:25:00,
2013-12-14 10:30:00,-1.6,-8.2,30.69,West,266,2.0,2.0,73,0.00,,,0.00,Wunderground v.1.15,2013-12-14 15:30:00,
2013-12-14 10:35:00,-1.2,-7.8,30.68,West,266,2.0,2.0,73,0.00,,,0.00,Wunderground v.1.15,2013-12-14 15:35:00,
2013-12-14 10:40:00,-0.9,-8.0,30.68,West,266,2.0,2.0,71,0.00,,,0.00,Wunderground v.1.15,2013-12-14 15:40:00,
2013-12-14 10:45:00,-0.8,-8.5,30.68,West,266,1.0,3.0,69,0.00,,,0.00,Wunderground v.1.15,2013-12-14 15:45:00,
2013-12-14 10:50:00,-0.3,-8.7,30.68,West,266,1.0,1.0,67,0.00,,,0.00,Wunderground v.1.15,2013-12-14 15:50:00,
2013-12-14 10:55:00,0.4,-8.0,30.68,West,266,1.0,1.0,67,0.00,,,0.00,Wunderground v.1.15,2013-12-14 15:55:00,
2013-12-14 11:00:00,0.9,-7.8,30.68,West,266,2.0,2.0,66,0.00,,,0.00,Wunderground v.1.15,2013-12-14 16:00:00,
2013-12-14 11:05:00,1.4,-7.6,30.67,West,266,2.0,2.0,65,0.00,,,0.00,Wunderground v.1.15,2013-12-14 16:05:00,
2013-12-14 11:10:00,2.5,-6.9,30.67,West,266,1.0,2.0,64,0.00,,,0.00,Wunderground v.1.15,2013-12-14 16:10:00,
2013-12-14 11:15:00,2.5,-7.2,30.67,SSE,150,2.0,2.0,63,0.00,,,0.00,Wunderground v.1.15,2013-12-14 16:15:00,
2013-12-14 11:20:00,2.6,-7.1,30.67,SSE,150,3.0,3.0,63,0.00,,,0.00,Wunderground v.1.15,2013-12-14 16:20:00,
2013-12-14 11:30:00,3.1,-7.3,30.67,NNE,32,2.0,3.0,61,0.00,,,0.00,Wunderground v.1.15,2013-12-14 16:30:00,
2013-12-14 11:35:00,3.0,-7.8,30.67,NE,52,3.0,3.0,60,0.00,,,0.00,Wunderground v.1.15,2013-12-14 16:35:00,
2013-12-14 11:40:00,3.5,-7.3,30.67,East,82,2.0,3.0,60,0.00,,,0.00,Wunderground v.1.15,2013-12-14 16:40:00,
2013-12-14 11:50:00,3.0,-8.1,30.66,SSE,147,3.0,3.0,59,0.00,,,0.00,Wunderground v.1.15,2013-12-14 16:50:00,
2013-12-14 11:55:00,2.8,-8.3,30.66,SSE,166,3.0,3.0,59,0.00,,,0.00,Wunderground v.1.15,2013-12-14 16:55:00,
2013-12-14 12:00:00,2.3,-8.8,30.66,SSE,166,3.0,3.0,59,0.00,,,0.00,Wunderground v.1.15,2013-12-14 17:00:00,
2013-12-14 12:05:00,2.3,-8.4,30.67,SSE,166,2.0,3.0,60,0.00,,,0.00,Wunderground v.1.15,2013-12-14 17:05:00,
2013-12-14 12:10:00,2.6,-7.8,30.67,SE,140,1.0,1.0,61,0.00,,,0.00,Wunderground v.1.15,2013-12-14 17:10:00,
2013-12-14 12:15:00,2.7,-8.1,30.66,SE,140,1.0,1.0,60,0.00,,,0.00,Wunderground v.1.15,2013-12-14 17:15:00,
2013-12-14 12:20:00,2.6,-8.5,30.66,SE,140,0.0,0.0,59,0.00,,,0.00,Wunderground v.1.15,2013-12-14 17:20:00,
2013-12-14 12:25:00,2.8,-8.0,30.66,SE,140,1.0,1.0,60,0.00,,,0.00,Wunderground v.1.15,2013-12-14 17:25:00,
2013-12-14 12:30:00,3.3,-6.8,30.66,ENE,58,1.0,2.0,62,0.00,,,0.00,Wunderground v.1.15,2013-12-14 17:30:00,
2013-12-14 12:35:00,3.5,-7.0,30.65,ENE,57,1.0,2.0,61,0.00,,,0.00,Wunderground v.1.15,2013-12-14 17:35:00,
2013-12-14 12:45:00,4.2,-6.3,30.65,ENE,57,1.0,1.0,61,0.00,,,0.00,Wunderground v.1.15,2013-12-14 17:45:00,
2013-12-14 12:50:00,4.6,-6.3,30.65,ENE,57,1.0,1.0,60,0.00,,,0.00,Wunderground v.1.15,2013-12-14 17:50:00,
2013-12-14 12:55:00,5.0,-6.2,30.64,ENE,57,0.0,1.0,59,0.00,,,0.00,Wunderground v.1.15,2013-12-14 17:55:00,
2013-12-14 13:00:00,4.8,-6.8,30.64,ENE,76,0.0,1.0,58,0.00,,,0.00,Wunderground v.1.15,2013-12-14 18:00:00,
2013-12-14 13:05:00,4.3,-7.2,30.64,ENE,76,1.0,1.0,58,0.00,,,0.00,Wunderground v.1.15,2013-12-14 18:05:00,
2013-12-14 13:10:00,4.1,-7.4,30.63,ENE,76,0.0,1.0,58,0.00,,,0.00,Wunderground v.1.15,2013-12-14 18:10:00,
2013-12-14 13:15:00,4.0,-7.2,30.64,SE,139,0.0,2.0,59,0.00,,,0.00,Wunderground v.1.15,2013-12-14 18:15:00,
2013-12-14 13:20:00,3.7,-7.5,30.63,SE,139,1.0,1.0,59,0.00,,,0.00,Wunderground v.1.15,2013-12-14 18:20:00,
2013-12-14 13:25:00,4.0,-6.8,30.63,SE,139,1.0,2.0,60,0.00,,,0.00,Wunderground v.1.15,2013-12-14 18:25:00,
2013-12-14 13:30:00,4.0,-7.2,30.63,SE,138,1.0,1.0,59,0.00,,,0.00,Wunderground v.1.15,2013-12-14 18:30:00,
2013-12-14 13:35:00,4.2,-6.6,30.63,SE,139,0.0,1.0,60,0.00,,,0.00,Wunderground v.1.15,2013-12-14 18:35:00,
2013-12-14 13:40:00,4.3,-7.2,30.63,SE,138,0.0,0.0,58,0.00,,,0.00,Wunderground v.1.15,2013-12-14 18:40:00,
2013-12-14 13:45:00,4.4,-7.1,30.63,SE,138,0.0,0.0,58,0.00,,,0.00,Wunderground v.1.15,2013-12-14 18:45:00,
2013-12-14 13:50:00,4.5,-7.0,30.62,SE,138,0.0,0.0,58,0.00,,,0.00,Wunderground v.1.15,2013-12-14 18:50:00,
2013-12-14 13:55:00,4.5,-7.0,30.62,SE,138,1.0,1.0,58,0.00,,,0.00,Wunderground v.1.15,2013-12-14 18:55:00,
2013-12-14 14:00:00,4.7,-6.5,30.62,SE,138,0.0,0.0,59,0.00,,,0.00,Wunderground v.1.15,2013-12-14 19:00:00,
2013-12-14 14:05:00,4.7,-6.9,30.62,SE,138,0.0,1.0,58,0.00,,,0.00,Wunderground v.1.15,2013-12-14 19:05:00,
2013-12-14 14:10:00,4.8,-6.4,30.63,SE,138,0.0,1.0,59,0.00,,,0.00,Wunderground v.1.15,2013-12-14 19:10:00,
2013-12-14 14:15:00,5.1,-6.1,30.62,SE,138,0.0,1.0,59,0.00,,,0.00,Wunderground v.1.15,2013-12-14 19:15:00,
2013-12-14 14:20:00,5.5,-6.1,30.62,SE,138,0.0,1.0,58,0.00,,,0.00,Wunderground v.1.15,2013-12-14 19:20:00,
2013-12-14 14:25:00,5.5,-6.5,30.62,SE,138,0.0,3.0,57,0.00,,,0.00,Wunderground v.1.15,2013-12-14 19:25:00,
2013-12-14 14:30:00,5.3,-5.9,30.62,SE,138,1.0,1.0,59,0.00,,,0.00,Wunderground v.1.15,2013-12-14 19:30:00,
2013-12-14 14:35:00,5.4,-5.2,30.62,ENE,71,2.0,2.0,61,0.00,,,0.00,Wunderground v.1.15,2013-12-14 19:35:00,
2013-12-14 14:40:00,5.6,-5.0,30.61,East,89,1.0,3.0,61,0.00,,,0.00,Wunderground v.1.15,2013-12-14 19:40:00,
2013-12-14 14:45:00,5.5,-5.1,30.61,ENE,76,1.0,3.0,61,0.00,,,0.00,Wunderground v.1.15,2013-12-14 19:45:00,
2013-12-14 14:50:00,5.5,-5.1,30.60,ENE,74,1.0,1.0,61,0.00,,,0.00,Wunderground v.1.15,2013-12-14 19:50:00,
2013-12-14 14:55:00,5.3,-4.9,30.61,ENE,74,1.0,3.0,62,0.00,,,0.00,Wunderground v.1.15,2013-12-14 19:55:00,
2013-12-14 15:00:00,5.2,-5.0,30.60,NE,49,1.0,3.0,62,0.00,,,0.00,Wunderground v.1.15,2013-12-14 20:00:00,
2013-12-14 15:05:00,5.2,-4.7,30.60,NE,42,2.0,3.0,63,0.00,,,0.00,Wunderground v.1.15,2013-12-14 20:05:00,
2013-12-14 15:10:00,5.3,-4.2,30.60,ENE,76,2.0,2.0,64,0.00,,,0.00,Wunderground v.1.15,2013-12-14 20:10:00,
2013-12-14 15:15:00,5.4,-4.2,30.60,ENE,71,1.0,2.0,64,0.00,,,0.00,Wunderground v.1.15,2013-12-14 20:15:00,
2013-12-14 15:20:00,5.3,-3.9,30.60,ENE,71,1.0,1.0,65,0.00,,,0.00,Wunderground v.1.15,2013-12-14 20:20:00,
2013-12-14 15:25:00,5.4,-3.8,30.59,ENE,71,1.0,1.0,65,0.00,,,0.00,Wunderground v.1.15,2013-12-14 20:25:00,
2013-12-14 15:30:00,5.4,-3.8,30.59,ENE,71,0.0,1.0,65,0.00,,,0.00,Wunderground v.1.15,2013-12-14 20:30:00,
2013-12-14 15:35:00,5.5,-4.1,30.59,ENE,71,1.0,1.0,64,0.00,,,0.00,Wunderground v.1.15,2013-12-14 20:35:00,
2013-12-14 15:40:00,5.4,-3.8,30.60,ENE,71,0.0,0.0,65,0.00,,,0.00,Wunderground v.1.15,2013-12-14 20:40:00,
2013-12-14 15:45:00,5.3,-3.9,30.60,ENE,71,0.0,0.0,65,0.00,,,0.00,Wunderground v.1.15,2013-12-14 20:45:00,
2013-12-14 15:50:00,5.0,-4.2,30.60,ENE,71,0.0,1.0,65,0.00,,,0.00,Wunderground v.1.15,2013-12-14 20:50:00,
2013-12-14 15:55:00,4.7,-4.2,30.60,ENE,71,0.0,1.0,66,0.00,,,0.00,Wunderground v.1.15,2013-12-14 20:55:00,
2013-12-14 16:05:00,4.5,-3.7,30.60,ENE,71,0.0,0.0,68,0.00,,,0.00,Wunderground v.1.15,2013-12-14 21:05:00,
2013-12-14 16:10:00,4.5,-3.4,30.60,ENE,71,0.0,0.0,69,0.00,,,0.00,Wunderground v.1.15,2013-12-14 21:10:00,
2013-12-14 16:20:00,4.4,-3.5,30.59,ENE,71,0.0,0.0,69,0.00,,,0.00,Wunderground v.1.15,2013-12-14 21:20:00,
2013-12-14 16:25:00,4.3,-3.6,30.60,ENE,71,0.0,0.0,69,0.00,,,0.00,Wunderground v.1.15,2013-12-14 21:25:00,
2013-12-14 16:30:00,4.2,-3.7,30.60,ENE,71,0.0,0.0,69,0.00,,,0.00,Wunderground v.1.15,2013-12-14 21:30:00,
2013-12-14 16:35:00,4.2,-3.7,30.59,ENE,71,0.0,0.0,69,0.00,,,0.00,Wunderground v.1.15,2013-12-14 21:35:00,
2013-12-14 16:40:00,4.4,-3.2,30.59,ENE,71,0.0,0.0,70,0.00,,,0.00,Wunderground v.1.15,2013-12-14 21:40:00,
2013-12-14 16:45:00,4.4,-3.2,30.58,ENE,71,0.0,0.0,70,0.00,,,0.00,Wunderground v.1.15,2013-12-14 21:45:00,
2013-12-14 16:50:00,4.4,-2.9,30.58,ENE,71,0.0,0.0,71,0.00,,,0.00,Wunderground v.1.15,2013-12-14 21:50:00,
2013-12-14 16:55:00,4.4,-2.9,30.58,ENE,71,0.0,0.0,71,0.00,,,0.00,Wunderground v.1.15,2013-12-14 21:55:00,
2013-12-14 17:00:00,4.5,-2.8,30.58,ENE,71,0.0,0.0,71,0.00,,,0.00,Wunderground v.1.15,2013-12-14 22:00:00,
2013-12-14 17:05:00,4.6,-2.7,30.57,ENE,71,0.0,0.0,71,0.00,,,0.00,Wunderground v.1.15,2013-12-14 22:05:00,
2013-12-14 17:10:00,4.6,-2.7,30.57,ENE,71,0.0,0.0,71,0.00,,,0.00,Wunderground v.1.15,2013-12-14 22:10:00,
2013-12-14 17:15:00,4.3,-3.0,30.56,ENE,71,0.0,0.0,71,0.00,,,0.00,Wunderground v.1.15,2013-12-14 22:15:00,
2013-12-14 17:20:00,4.0,-3.0,30.56,ENE,71,1.0,1.0,72,0.00,,,0.00,Wunderground v.1.15,2013-12-14 22:20:00,
2013-12-14 17:25:00,3.8,-3.5,30.56,ENE,71,1.0,1.0,71,0.00,,,0.00,Wunderground v.1.15,2013-12-14 22:25:00,
2013-12-14 17:30:00,3.7,-3.6,30.56,ENE,71,1.0,1.0,71,0.00,,,0.00,Wunderground v.1.15,2013-12-14 22:30:00,
2013-12-14 17:35:00,3.8,-3.2,30.56,ENE,71,0.0,1.0,72,0.00,,,0.00,Wunderground v.1.15,2013-12-14 22:35:00,
2013-12-14 17:40:00,3.9,-3.1,30.55,ENE,71,0.0,0.0,72,0.00,,,0.00,Wunderground v.1.15,2013-12-14 22:40:00,
2013-12-14 17:45:00,4.0,-2.7,30.55,ENE,71,0.0,0.0,73,0.00,,,0.00,Wunderground v.1.15,2013-12-14 22:45:00,
2013-12-14 17:50:00,4.2,-2.5,30.54,ENE,71,0.0,0.0,73,0.00,,,0.00,Wunderground v.1.15,2013-12-14 22:50:00,
2013-12-14 17:55:00,4.5,-2.3,30.54,ENE,71,0.0,0.0,73,0.00,,,0.00,Wunderground v.1.15,2013-12-14 22:55:00,
2013-12-14 18:00:00,4.8,-2.0,30.53,ENE,71,0.0,0.0,73,0.00,,,0.00,Wunderground v.1.15,2013-12-14 23:00:00,
2013-12-14 18:05:00,5.0,-2.1,30.53,ENE,71,0.0,0.0,72,0.00,,,0.00,Wunderground v.1.15,2013-12-14 23:05:00,
2013-12-14 18:15:00,5.2,-1.9,30.52,ENE,71,0.0,2.0,72,0.00,,,0.00,Wunderground v.1.15,2013-12-14 23:15:00,
2013-12-14 18:20:00,5.3,-1.8,30.52,ENE,71,0.0,3.0,72,0.00,,,0.00,Wunderground v.1.15,2013-12-14 23:20:00,
2013-12-14 18:25:00,5.4,-1.7,30.51,ENE,71,1.0,1.0,72,0.00,,,0.00,Wunderground v.1.15,2013-12-14 23:25:00,
2013-12-14 18:30:00,5.3,-2.1,30.52,ENE,71,1.0,1.0,71,0.00,,,0.00,Wunderground v.1.15,2013-12-14 23:30:00,
2013-12-14 18:35:00,5.1,-2.3,30.52,ENE,71,0.0,0.0,71,0.00,,,0.00,Wunderground v.1.15,2013-12-14 23:35:00,
2013-12-14 18:40:00,5.1,-2.0,30.51,ENE,71,0.0,0.0,72,0.00,,,0.00,Wunderground v.1.15,2013-12-14 23:40:00,
2013-12-14 18:45:00,5.2,-1.9,30.51,ENE,71,0.0,0.0,72,0.00,,,0.00,Wunderground v.1.15,2013-12-14 23:45:00,
2013-12-14 18:50:00,5.1,-2.0,30.51,ENE,71,0.0,0.0,72,0.00,,,0.00,Wunderground v.1.15,2013-12-14 23:50:00,
2013-12-14 18:55:00,4.9,-2.2,30.51,ENE,71,0.0,0.0,72,0.00,,,0.00,Wunderground v.1.15,2013-12-14 23:55:00,
2013-12-14 19:00:00,4.8,-2.3,30.52,SSE,153,0.0,1.0,72,0.00,,,0.00,Wunderground v.1.15,2013-12-15 00:00:00,
2013-12-14 19:05:00,4.9,-2.2,30.51,SSE,153,1.0,2.0,72,0.00,,,0.00,Wunderground v.1.15,2013-12-15 00:05:00,
2013-12-14 19:10:00,4.9,-2.5,30.51,SSE,147,2.0,4.0,71,0.00,,,0.00,Wunderground v.1.15,2013-12-15 00:10:00,
2013-12-14 19:15:00,4.9,-2.2,30.51,SSE,147,3.0,4.0,72,0.00,,,0.00,Wunderground v.1.15,2013-12-15 00:15:00,
2013-12-14 19:20:00,4.9,-1.6,30.51,SSE,154,3.0,4.0,74,0.00,,,0.00,Wunderground v.1.15,2013-12-15 00:20:00,
2013-12-14 19:25:00,4.8,-1.4,30.52,SSE,160,4.0,4.0,75,0.00,,,0.00,Wunderground v.1.15,2013-12-15 00:25:00,
2013-12-14 19:30:00,4.7,-1.2,30.52,SSE,157,4.0,4.0,76,0.00,,,0.00,Wunderground v.1.15,2013-12-15 00:30:00,
2013-12-14 19:35:00,4.7,-0.7,30.51,SSE,157,4.0,4.0,78,0.00,,,0.00,Wunderground v.1.15,2013-12-15 00:35:00,
2013-12-14 19:45:00,4.7,-0.4,30.51,SSE,157,1.0,1.0,79,0.00,,,0.00,Wunderground v.1.15,2013-12-15 00:45:00,
2013-12-14 19:50:00,4.7,-0.1,30.50,SSE,157,2.0,2.0,80,0.00,,,0.00,Wunderground v.1.15,2013-12-15 00:50:00,
2013-12-14 19:55:00,4.6,0.1,30.50,SSE,157,1.0,2.0,81,0.00,,,0.00,Wunderground v.1.15,2013-12-15 00:55:00,
2013-12-14 20:00:00,4.6,0.1,30.50,SSE,157,1.0,3.0,81,0.00,,,0.00,Wunderground v.1.15,2013-12-15 01:00:00,
2013-12-14 20:10:00,4.5,0.2,30.49,SSE,157,3.0,3.0,82,0.00,,,0.00,Wunderground v.1.15,2013-12-15 01:10:00,
2013-12-14 20:15:00,4.4,0.4,30.49,SSE,157,3.0,3.0,83,0.00,,,0.00,Wunderground v.1.15,2013-12-15 01:15:00,
2013-12-14 20:20:00,4.4,0.6,30.49,SSE,157,3.0,3.0,84,0.00,,,0.00,Wunderground v.1.15,2013-12-15 01:20:00,
2013-12-14 20:30:00,4.4,0.6,30.48,SSE,157,3.0,3.0,84,0.00,,,0.00,Wunderground v.1.15,2013-12-15 01:30:00,
2013-12-14 20:35:00,4.4,0.6,30.48,SSE,157,3.0,3.0,84,0.00,,,0.00,Wunderground v.1.15,2013-12-15 01:35:00,
2013-12-14 20:40:00,4.4,0.6,30.47,SSE,157,2.0,2.0,84,0.00,,,0.00,Wunderground v.1.15,2013-12-15 01:40:00,
2013-12-14 20:45:00,4.4,0.9,30.47,SSE,157,2.0,3.0,85,0.00,,,0.00,Wunderground v.1.15,2013-12-15 01:45:00,
2013-12-14 20:50:00,4.5,1.0,30.46,SSE,157,2.0,2.0,85,0.00,,,0.00,Wunderground v.1.15,2013-12-15 01:50:00,
2013-12-14 20:55:00,4.5,1.0,30.46,SSE,157,2.0,3.0,85,0.00,,,0.01,Wunderground v.1.15,2013-12-15 01:55:00,
2013-12-14 21:00:00,4.7,1.2,30.45,SSE,157,2.0,2.0,85,0.00,,,0.01,Wunderground v.1.15,2013-12-15 02:00:00,
2013-12-14 21:05:00,4.8,1.3,30.45,SSE,157,1.0,2.0,85,0.00,,,0.01,Wunderground v.1.15,2013-12-15 02:05:00,
2013-12-14 21:10:00,4.9,1.4,30.45,SSE,157,1.0,1.0,85,0.00,,,0.01,Wunderground v.1.15,2013-12-15 02:10:00,
2013-12-14 21:15:00,4.9,1.4,30.45,SSE,157,1.0,2.0,85,0.00,,,0.01,Wunderground v.1.15,2013-12-15 02:15:00,
2013-12-14 21:25:00,5.1,1.8,30.44,SSE,157,2.0,2.0,86,0.00,,,0.01,Wunderground v.1.15,2013-12-15 02:25:00,
2013-12-14 21:30:00,5.1,1.8,30.44,SSE,157,2.0,3.0,86,0.00,,,0.01,Wunderground v.1.15,2013-12-15 02:30:00,
2013-12-14 21:35:00,5.3,2.0,30.44,SSE,163,3.0,4.0,86,0.00,,,0.01,Wunderground v.1.15,2013-12-15 02:35:00,
2013-12-14 21:40:00,5.3,1.8,30.44,SSE,162,3.0,3.0,85,0.00,,,0.01,Wunderground v.1.15,2013-12-15 02:40:00,
2013-12-14 21:45:00,5.3,1.8,30.44,SSE,162,3.0,3.0,85,0.00,,,0.01,Wunderground v.1.15,2013-12-15 02:45:00,
2013-12-14 21:50:00,5.4,1.9,30.44,SSE,162,2.0,2.0,85,0.00,,,0.02,Wunderground v.1.15,2013-12-15 02:50:00,
2013-12-14 21:55:00,5.4,1.9,30.43,SSE,162,2.0,2.0,85,0.00,,,0.02,Wunderground v.1.15,2013-12-15 02:55:00,
2013-12-14 22:05:00,5.5,2.0,30.42,SSE,162,2.0,2.0,85,0.00,,,0.02,Wunderground v.1.15,2013-12-15 03:05:00,
2013-12-14 22:10:00,5.5,2.2,30.41,SSE,162,1.0,2.0,86,0.00,,,0.02,Wunderground v.1.15,2013-12-15 03:10:00,
2013-12-14 22:25:00,5.7,2.4,30.39,SSE,162,0.0,0.0,86,0.00,,,0.03,Wunderground v.1.15,2013-12-15 03:25:00,
2013-12-14 22:30:00,5.8,2.5,30.39,SSE,162,0.0,0.0,86,0.00,,,0.03,Wunderground v.1.15,2013-12-15 03:30:00,
2013-12-14 22:35:00,5.9,2.6,30.38,SSE,162,1.0,2.0,86,0.05,,,0.04,Wunderground v.1.15,2013-12-15 03:35:00,
2013-12-14 22:40:00,6.0,2.7,30.38,SSE,162,1.0,1.0,86,0.05,,,0.04,Wunderground v.1.15,2013-12-15 03:40:00,
2013-12-14 22:50:00,6.1,2.8,30.38,SSE,162,1.0,2.0,86,0.00,,,0.04,Wunderground v.1.15,2013-12-15 03:50:00,
2013-12-14 22:55:00,6.2,2.9,30.38,SSE,162,1.0,2.0,86,0.00,,,0.04,Wunderground v.1.15,2013-12-15 03:55:00,
2013-12-14 23:00:00,6.2,2.9,30.37,SSE,162,1.0,1.0,86,0.00,,,0.05,Wunderground v.1.15,2013-12-15 04:00:00,
2013-12-14 23:05:00,6.3,3.0,30.36,SSE,162,1.0,1.0,86,0.00,,,0.05,Wunderground v.1.15,2013-12-15 04:05:00,
2013-12-14 23:10:00,6.5,3.2,30.36,SSE,162,0.0,0.0,86,0.00,,,0.05,Wunderground v.1.15,2013-12-15 04:10:00,
2013-12-14 23:15:00,6.6,3.3,30.35,SSE,162,0.0,0.0,86,0.00,,,0.05,Wunderground v.1.15,2013-12-15 04:15:00,
2013-12-14 23:20:00,6.7,3.4,30.35,SE,140,1.0,4.0,86,0.00,,,0.06,Wunderground v.1.15,2013-12-15 04:20:00,
2013-12-14 23:25:00,6.7,3.4,30.34,SE,143,2.0,4.0,86,0.00,,,0.06,Wunderground v.1.15,2013-12-15 04:25:00,
2013-12-14 23:30:00,6.7,3.4,30.33,SE,140,2.0,2.0,86,0.00,,,0.06,Wunderground v.1.15,2013-12-15 04:30:00,
2013-12-14 23:35:00,6.8,3.5,30.32,SE,140,1.0,2.0,86,0.00,,,0.06,Wunderground v.1.15,2013-12-15 04:35:00,
2013-12-14 23:40:00,6.8,3.5,30.31,SE,140,1.0,1.0,86,0.00,,,0.06,Wunderground v.1.15,2013-12-15 04:40:00,
2013-12-14 23:50:00,6.8,3.5,30.30,SE,141,2.0,2.0,86,0.00,,,0.07,Wunderground v.1.15,2013-12-15 04:50:00,